TimeEST,TemperatureF,Dew PointF,Humidity,Sea Level PressureIn,VisibilityMPH,Wind Direction,Wind SpeedMPH,Gust SpeedMPH,PrecipitationIn,Events,Conditions,WindDirDegrees,DateUTC
12:53 AM,41.0,36.0,82,29.96,8.0,Calm,Calm,-,0.00,,Mostly Cloudy,0,2012-12-07 05:53:00
1:53 AM,39.0,36.0,89,29.96,6.0,Calm,Calm,-,N/A,,Mostly Cloudy,0,2012-12-07 06:53:00
2:53 AM,41.0,36.0,82,29.95,6.0,SSE,4.6,-,N/A,,Haze,160,2012-12-07 07:53:00
3:53 AM,41.0,36.0,82,29.94,8.0,South,4.6,-,N/A,,Overcast,180,2012-12-07 08:53:00
4:53 AM,41.0,37.0,86,29.94,7.0,SSW,5.8,-,0.00,Rain,Light Rain,210,2012-12-07 09:53:00
5:53 AM,39.9,37.0,89,29.95,6.0,SW,4.6,-,0.00,,Overcast,230,2012-12-07 10:53:00
7:53 AM,41.0,37.9,89,29.96,3.0,South,3.5,-,0.01,Rain,Light Rain,170,2012-12-07 12:53:00
8:22 AM,41.0,37.4,87,29.95,2.0,South,3.5,-,0.01,Rain,Light Rain,180,2012-12-07 13:22:00
8:31 AM,41.0,39.2,93,29.95,1.8,Calm,Calm,-,0.01,Rain,Light Rain,0,2012-12-07 13:31:00
8:53 AM,41.0,39.0,93,29.97,1.8,Calm,Calm,-,0.01,Rain,Light Rain,0,2012-12-07 13:53:00
9:18 AM,41.0,39.2,93,29.95,1.8,Calm,Calm,-,0.00,,Overcast,0,2012-12-07 14:18:00
9:25 AM,41.0,39.2,93,29.95,2.0,SSW,3.5,-,0.00,,Overcast,200,2012-12-07 14:25:00
9:53 AM,42.1,39.0,89,29.97,2.5,South,3.5,-,0.00,,Overcast,190,2012-12-07 14:53:00
10:29 AM,42.8,39.2,87,29.95,3.0,South,3.5,-,N/A,,Overcast,190,2012-12-07 15:29:00
10:44 AM,42.8,39.2,87,29.95,3.0,SW,3.5,-,N/A,,Overcast,230,2012-12-07 15:44:00
10:53 AM,43.0,39.9,89,29.97,2.5,SSW,3.5,-,N/A,,Overcast,200,2012-12-07 15:53:00
11:13 AM,44.6,41.0,87,29.94,3.0,Calm,Calm,-,N/A,,Overcast,0,2012-12-07 16:13:00
11:35 AM,44.6,41.0,87,29.94,3.0,Calm,Calm,-,N/A,,Overcast,0,2012-12-07 16:35:00
11:49 AM,44.6,41.0,87,29.93,3.0,Calm,Calm,-,N/A,,Overcast,0,2012-12-07 16:49:00
11:53 AM,45.0,41.0,86,29.95,3.0,Calm,Calm,-,N/A,,Overcast,0,2012-12-07 16:53:00
12:27 PM,46.4,42.8,87,29.91,3.0,North,3.5,-,N/A,,Overcast,10,2012-12-07 17:27:00
12:36 PM,46.4,41.0,81,29.91,3.0,Calm,Calm,-,N/A,,Haze,0,2012-12-07 17:36:00
12:53 PM,46.0,41.0,83,29.93,3.0,Calm,Calm,-,N/A,,Haze,0,2012-12-07 17:53:00
1:49 PM,46.4,42.8,87,29.90,2.5,Calm,Calm,-,N/A,,Overcast,0,2012-12-07 18:49:00
1:53 PM,46.0,42.1,86,29.91,2.5,Calm,Calm,-,N/A,,Overcast,0,2012-12-07 18:53:00
2:53 PM,46.0,42.1,86,29.91,2.0,Calm,Calm,-,N/A,,Overcast,0,2012-12-07 19:53:00
3:53 PM,46.0,42.1,86,29.90,1.8,ENE,3.5,-,0.00,,Overcast,70,2012-12-07 20:53:00
4:03 PM,46.4,42.8,87,29.89,1.5,Calm,Calm,-,N/A,,Overcast,0,2012-12-07 21:03:00
4:14 PM,46.4,42.8,87,29.89,1.5,ENE,3.5,-,N/A,,Overcast,70,2012-12-07 21:14:00
4:53 PM,45.0,42.1,90,29.91,1.5,NNE,3.5,-,N/A,,Overcast,30,2012-12-07 21:53:00
5:10 PM,44.6,42.8,93,29.90,2.0,NNE,4.6,-,N/A,,Overcast,20,2012-12-07 22:10:00
5:51 PM,44.6,42.8,93,29.89,1.8,ENE,4.6,-,0.00,Rain,Light Rain,60,2012-12-07 22:51:00
5:53 PM,45.0,42.1,90,29.90,2.0,NE,3.5,-,0.00,Rain,Light Rain,50,2012-12-07 22:53:00
6:19 PM,44.6,42.8,93,29.89,1.8,NE,4.6,-,0.00,,Overcast,50,2012-12-07 23:19:00
6:53 PM,44.1,42.1,93,29.90,1.8,NNE,4.6,-,0.00,,Overcast,30,2012-12-07 23:53:00
7:04 PM,44.6,42.8,93,29.88,1.5,NNE,4.6,-,N/A,,Overcast,30,2012-12-08 00:04:00
7:38 PM,44.6,42.8,93,29.88,1.2,NE,4.6,-,0.00,,Overcast,50,2012-12-08 00:38:00
8:53 PM,44.1,42.1,93,29.88,1.2,ENE,4.6,-,0.01,Rain,Light Rain,60,2012-12-08 01:53:00
9:53 PM,44.1,42.1,93,29.87,1.5,NE,6.9,-,0.01,,Overcast,40,2012-12-08 02:53:00
10:53 PM,44.1,42.1,93,29.87,1.0,NE,4.6,-,0.00,Rain,Light Rain,50,2012-12-08 03:53:00
11:53 PM,44.1,41.0,89,29.86,1.8,Calm,Calm,-,0.04,Rain,Light Rain,0,2012-12-08 04:53:00